星链-3554 (STARLINK-3554 )

导读

STARLINK-3554是美国SpaceX公司星链星座的一员,于2022年3月3日发射。星链计划旨在构建全球卫星互联网星座,为全球提供高速互联网接入服务,尤其覆盖偏远地区。该卫星是星链网络不断扩张中的一环,加入低轨卫星星座,助力实现全球互联的目标,推动卫星通信技术发展。

基本信息
目录编号:
51872
目录名称:
STARLINK-3554
国际标识:
2022-022W
轨道中心:
EARTH
卫星名称:
星链-3554
卫星全名:
星链-3554 (STARLINK-3554 )
卫星状态:
在轨 (已飞行1646 天)
发射日期:
2022-03-03 UTC
国别 :
美国 (US)
星等 :
--
轨道信息
数据来源 国际轨道数据 AOE轨道数据
星历时间 2026-09-02T20:42:10+0800
1天前
查看轨道信息
2026-09-04T02:00:00+0800
11小时前
查看轨道信息
半长轴 6837.87km 6837.888km
偏心率 0.00011 0.0001063
轨道倾角 53.159° 53.160°
近地点辐角 75.128° 71.694°
升交点赤经 287.484° 281.774°
平近点角 284.984° 199.613°
近地点 458.98km 459.024km
远地点 460.486km 460.478km
周期 93.787分钟 93.787分钟
每日圈数 15.353999 15.35394
详细信息
固有亮度:
5
最大亮度:
2.5
卫星平台:
Starlink v1.5
覆盖范围:
全球
运营商:
太空探索技术公司
运营商所在国:
美国
制造商(研发单位):
太空探索技术公司
制造商所在国:
美国
使用方式:
暂无
卫星简介
星链(Starlink)计划是由太空探索技术公司(SpaceX)提出的一个巨型低轨卫星互联网星座项目,计划在2019年至2024年间在太空搭建由约1.2万颗卫星组成的“星链”网络,其中1584颗将部署在地球上空550千米处的近地轨道,并从2020年开始工作。该卫星仍在工作。
2D轨道图
3D轨道图
轨道高度分析图
轨道倾角分析图
轨道综合分析图
查看轨道综合分析图
交会数据列表
事件ID 空间交会对象 最接近时刻(TCA) 交会距离 交会风险概率(CRP) 交会风险指数(CRI) 操作
CDM_260905-124005-187206-476721
2026-09-05T
12:40:14+0000
2.100 km
极远距离
2.201256E-6 低风险 0.42
CDM_260901-232605-187206-638122
2026-09-01T
23:26:40+0000
2.485 km
极远距离
1.583327E-6 低风险 0.39
CDM_260903-221605-187206-534121
2026-09-03T
22:16:30+0000
2.855 km
极远距离
1.27705E-6 低风险 0.37
CDM_260831-010505-187206-466421
2026-08-31T
01:05:24+0000
2.862 km
极远距离
1.066901E-6 低风险 0.36